1497070800.62,5394,19.44,74090.3,6.23,-0.65,-1.25,0,*74
1497070801.86,5395,19.44,74084.8,6.23,-0.53,-1.05,0,*72
1497070803.06,5396,19.44,74088.3,6.21,-0.53,-0.97,0,*49
1497070804.25,5397,19.44,74084.5,6.21,-0.73,-1.21,0,*76
1497070805.43,5398,19.38,74086.5,6.21,-0.73,-1.17,0,*7C
1497070806.64,5399,19.44,74084.8,6.19,-0.65,-1.05,0,*72
1497070807.86,5400,19.38,74086.3,6.19,-0.81,-1.39,0,*70
1497070809.06,5401,19.44,74086.5,6.21,-0.93,-1.59,0,*7F
1497070810.29,5402,19.38,74084.5,6.21,-0.85,-1.47,0,*74
1497070811.5,5403,19.44,74084.8,6.19,-0.81,-1.39,0,*73
1497070812.69,5404,19.38,74084.0,6.19,-0.65,-1.17,0,*72
1497070813.89,5405,19.38,74086.8,6.21,-0.29,-1.05,0,*73
1497070815.1,5406,19.44,74086.0,6.21,-0.85,-1.67,0,*72
1497070816.33,5407,19.38,74084.0,6.19,-1.17,-2.07,0,*47
1497070817.52,5408,19.38,74086.3,6.21,-1.33,-2.15,0,*46
1497070818.73,5409,19.44,74090.5,6.19,-0.97,-1.79,0,*7A
1497070819.96,5410,19.44,74088.3,6.19,-0.97,-1.95,0,*70
1497070821.17,5411,19.44,74088.3,6.17,-0.49,-1.51,0,*74
1497070822.37,5412,19.44,74086.5,6.17,-0.33,-1.25,0,*79
1497070823.58,5413,19.44,74088.0,6.19,-0.19,-1.09,0,*70
1497070824.77,5414,19.38,74084.0,6.19,-0.07,-0.97,0,*7E
1497070825.96,5415,19.38,74086.3,6.19,-0.19,-1.17,0,*79
1497070827.15,5416,19.38,74084.8,6.19,-0.57,-1.59,0,*7A
1497070828.38,5417,19.44,74086.5,6.19,-0.93,-1.83,0,*74
1497070829.64,5418,19.44,74090.3,6.17,-1.13,-2.11,0,*44
1497070830.89,5419,19.44,74090.5,6.17,-1.43,-2.35,0,*46
1497070832.12,5420,19.44,74090.3,6.17,-2.11,-3.15,0,*4B
1497070833.31,5421,19.38,74086.5,6.15,-2.99,-3.95,0,*40
1497070834.56,5422,19.38,74088.8,6.17,-3.79,-4.69,0,*4A
1497070835.8,5423,19.38,74084.3,6.17,-4.05,-4.89,0,*49
1497070837.04,5424,19.44,74088.0,6.17,-4.17,-5.07,0,*4A
1497070838.27,5425,19.44,74090.0,6.15,-4.21,-5.23,0,*4A
1497070839.49,5426,19.44,74090.0,6.17,-4.61,-5.55,0,*4E
1497070840.74,5427,19.38,74088.0,6.17,-4.93,-5.81,0,*4B
1497070841.95,5428,19.44,74088.0,6.15,-4.99,-5.77,0,*45
1497070843.18,5429,19.44,74088.8,6.15,-5.03,-5.73,0,*42
1497070844.42,5430,19.38,74086.3,6.15,-4.93,-5.61,0,*41
1497070845.66,5431,19.38,74086.0,6.15,-4.81,-5.61,0,*43
1497070846.9,5432,19.38,74086.5,6.17,-4.89,-5.55,0,*4D
1497070848.13,5433,19.44,74090.5,6.17,-4.93,-5.55,0,*47
1497070849.34,5434,19.44,74086.5,6.15,-4.81,-5.43,0,*46
1497070850.54,5435,19.38,74086.8,6.15,-4.77,-5.35,0,*4F
1497070851.79,5436,19.44,74090.5,6.17,-4.53,-5.07,0,*49
1497070853.02,5437,19.44,74092.0,6.17,-4.53,-4.93,0,*44
1497070854.24,5438,19.44,74088.8,6.15,-4.57,-5.11,0,*46
1497070855.47,5439,19.44,74090.0,6.17,-4.37,-4.89,0,*43
1497070856.66,5440,19.38,74086.3,6.15,-4.09,-4.57,0,*41
1497070857.89,5441,19.44,74088.0,6.17,-3.75,-4.53,0,*4A
1497070859.12,5442,19.38,74086.8,6.17,-3.83,-4.65,0,*45
1497070860.33,5443,19.38,74088.3,6.15,-3.87,-4.69,0,*4E
1497070861.57,5444,19.38,74084.3,6.17,-3.59,-4.49,0,*4A
1497070862.79,5445,19.44,74088.3,6.15,-3.51,-4.41,0,*49
1497070864.03,5446,19.44,74088.0,6.17,-3.59,-4.53,0,*43
1497070865.27,5447,19.44,74088.0,6.17,-3.55,-4.41,0,*4D
1497070866.49,5448,19.38,74086.0,6.17,-3.35,-4.05,0,*44
1497070867.72,5449,19.44,74088.8,6.17,-3.11,-3.71,0,*47
1497070868.96,5450,19.38,74086.5,6.17,-2.75,-3.27,0,*4F
1497070870.17,5451,19.44,74090.3,6.17,-2.39,-2.99,0,*42
1497070871.38,5452,19.44,74090.5,6.21,-2.15,-2.67,0,*4B
1497070872.59,5453,19.38,74086.0,6.21,-2.03,-2.43,0,*4B
1497070873.83,5454,19.38,74086.0,6.19,-2.03,-2.71,0,*46
1497070875.07,5455,19.38,74088.0,6.19,-2.59,-3.43,0,*48
1497070876.26,5456,19.38,74084.8,6.19,-3.19,-4.13,0,*4C
1497070877.48,5457,19.44,74090.0,6.19,-3.67,-4.57,0,*44
1497070878.69,5458,19.44,74088.0,6.21,-3.87,-4.89,0,*4D
1497070879.91,5459,19.38,74086.3,6.19,-3.67,-4.57,0,*4A
1497070881.15,5460,19.44,74088.5,6.19,-3.71,-4.73,0,*41
1497070882.38,5461,19.38,74088.0,6.21,-4.21,-5.27,0,*49
1497070883.61,5462,19.38,74086.5,6.21,-4.69,-5.81,0,*4A
1497070884.82,5463,19.44,74090.3,6.21,-5.27,-6.31,0,*48
1497070886.04,5464,19.38,74084.5,6.19,-5.27,-6.47,0,*45
1497070887.25,5465,19.44,74090.5,6.21,-5.27,-6.73,0,*48
1497070888.46,5466,19.38,74088.5,6.19,-5.55,-7.05,0,*45
1497070889.7,5467,19.38,74086.8,6.19,-5.81,-7.39,0,*42
1497070890.89,5468,19.38,74088.3,6.19,-6.01,-7.53,0,*4A
1497070892.1,5469,19.44,74088.5,6.19,-6.27,-7.87,0,*46
1497070893.32,5470,19.38,74090.0,6.19,-6.35,-7.91,0,*4A
1497070894.51,5471,19.38,74086.8,6.19,-6.59,-8.17,0,*40
1497070895.7,5472,19.38,74088.0,6.19,-6.73,-8.41,0,*48
1497070896.91,5473,19.38,74086.3,6.19,-7.27,-8.93,0,*46
1497070898.15,5474,19.44,74090.0,6.19,-7.65,-9.15,0,*48
1497070899.39,5475,19.38,74086.8,6.19,-7.61,-9.11,0,*49
1497070900.64,5476,19.44,74090.8,6.17,-7.57,-9.05,0,*44
1497070901.87,5477,19.44,74090.3,6.17,-7.31,-8.71,0,*47
1497070903.11,5478,19.38,74084.5,6.17,-7.01,-8.37,0,*49
1497070904.3,5479,19.38,74086.3,6.15,-7.15,-8.37,0,*4F
1497070905.53,5480,19.44,74090.3,6.17,-6.85,-7.95,0,*44
1497070906.79,5481,19.38,74086.0,6.17,-6.63,-7.65,0,*42
1497070908.01,5482,19.38,74086.5,6.15,-6.55,-7.57,0,*47
1497070909.2,5483,19.44,74088.5,6.15,-6.35,-7.15,0,*46
1497070910.44,5484,19.38,74088.0,6.17,-6.05,-6.63,0,*40
1497070911.67,5485,19.38,74084.8,6.15,-5.77,-6.27,0,*45
1497070912.88,5486,19.38,74086.8,6.15,-5.43,-5.77,0,*47
1497070914.12,5487,19.38,74086.5,6.15,-5.07,-5.31,0,*44
1497070915.35,5488,19.38,74084.0,6.15,-4.77,-4.85,0,*43
1497070916.54,5489,19.44,74090.0,6.15,-4.33,-4.45,0,*4E
1497070917.74,5490,19.38,74086.8,6.15,-3.91,-3.95,0,*43
1497070918.97,5491,19.38,74084.3,6.15,-3.63,-3.67,0,*42
1497070920.15,5492,19.38,74084.0,6.15,-3.03,-3.03,0,*45
1497070921.36,5493,19.44,74090.5,6.15,-2.51,-2.43,0,*47
1497070922.6,5494,19.38,74086.0,6.15,-2.03,-2.03,0,*43
1497070923.81,5495,19.44,74090.3,6.17,-1.59,-1.59,0,*40
1497070925.07,5496,19.44,74088.3,6.17,-1.13,-1.13,0,*43
1497070926.28,5497,19.44,74086.5,6.17,-0.73,-0.69,0,*49
1497070927.44,5498,19.38,74084.3,6.15,-0.61,-0.61,0,*4F
1497070928.63,5499,19.44,74086.8,6.15,-0.41,-0.37,0,*4F
1497070929.88,5500,19.38,74084.8,6.17,-0.27,-0.23,0,*49
1497070931.09,5501,19.38,74084.3,6.17,-0.11,-0.15,0,*48
1497070932.27,5502,19.44,74086.5,6.17,0.01,0.01,0,*4F
1497070933.51,5503,19.44,74088.8,6.17,0.25,0.29,0,*42
1497070934.74,5504,19.44,74088.3,6.17,0.13,0.17,0,*4D
1497070935.98,5505,19.44,74088.3,6.17,0.41,0.51,0,*49
1497070937.19,5506,19.44,74090.8,6.19,0.51,0.63,0,*44
1497070938.41,5507,19.38,74090.0,6.19,0.63,0.79,0,*4F
1497070939.61,5508,19.38,74084.8,6.19,0.79,1.01,0,*75
1497070940.84,5509,19.38,74086.5,6.19,1.13,1.25,0,*4F
1497070942.07,5510,19.44,74090.5,6.19,1.13,1.25,0,*47
1497070943.3,5511,19.38,74086.5,6.21,1.13,1.29,0,*41
1497070944.54,5512,19.38,74084.8,6.19,1.25,1.37,0,*43
1497070945.73,5513,19.38,74084.3,6.19,1.41,1.59,0,*48
1497070946.93,5514,19.38,74088.3,6.19,1.41,1.59,0,*4F
1497070948.13,5515,19.44,74088.3,6.19,1.63,1.75,0,*40
1497070949.36,5516,19.38,74088.0,6.19,1.85,1.89,0,*48
1497070950.59,5517,19.38,74084.3,6.19,1.97,2.13,0,*4A
1497070951.82,5518,19.44,74090.3,6.21,2.01,2.09,0,*49
1497070953.01,5519,19.38,74086.8,6.21,2.09,2.31,0,*4B
1497070954.23,5520,19.38,74086.0,6.21,2.21,2.43,0,*4E
1497070955.44,5521,19.38,74084.3,6.19,2.31,2.47,0,*41
1497070956.67,5522,19.38,74084.8,6.19,2.43,2.47,0,*47
1497070957.87,5523,19.38,74086.5,6.21,2.43,2.61,0,*49
1497070959.1,5524,19.44,74090.3,6.21,2.51,2.69,0,*45
1497070960.32,5525,19.38,74084.5,6.21,2.69,2.81,0,*49
1497070961.55,5526,19.38,74086.8,6.21,2.59,2.73,0,*44
1497070962.77,5527,19.44,74088.5,6.25,2.73,2.85,0,*40
1497070964.02,5528,19.38,74090.3,6.23,2.73,2.77,0,*44
1497070965.25,5529,19.38,74090.8,6.23,2.77,2.95,0,*4D
1497070966.45,5530,19.44,74088.3,6.25,2.65,2.77,0,*4C
1497070967.71,5531,19.44,74090.0,6.27,2.69,2.77,0,*43
1497070968.96,5532,19.44,74088.0,6.27,2.77,2.81,0,*46
1497070970.17,5533,19.44,74090.8,6.25,2.61,2.73,0,*4F
1497070971.35,5534,19.44,74090.5,6.25,2.61,2.61,0,*4B
1497070972.59,5535,19.38,74086.5,6.27,2.65,2.77,0,*4B
1497070973.82,5536,19.38,74090.0,6.25,2.85,2.89,0,*45
1497070975.07,5537,19.38,74086.0,6.27,2.89,2.81,0,*42
1497070976.33,5538,19.38,74084.8,6.27,2.81,2.77,0,*4C
1497070977.55,5539,19.38,74084.8,6.29,2.81,2.77,0,*43
1497070978.78,5540,19.38,74084.3,6.29,2.77,2.81,0,*4D
1497070979.96,5541,19.38,74084.3,6.29,2.65,2.65,0,*45
1497070981.19,5542,19.38,74090.8,6.29,2.39,2.39,0,*46
1497070982.43,5543,19.38,74088.5,6.31,2.25,2.21,0,*4A
1497070983.69,5544,19.44,74090.3,6.35,2.17,2.25,0,*4C
1497070984.94,5545,19.38,74088.0,6.31,2.01,2.01,0,*48
1497070986.18,5546,19.38,74088.5,6.31,1.89,1.97,0,*44
1497070987.43,5547,19.44,74088.3,6.31,1.85,1.97,0,*49
1497070988.67,5548,19.44,74090.0,6.31,1.85,1.89,0,*49
1497070989.89,5549,19.38,74088.3,6.31,1.83,1.97,0,*41
1497070991.11,5550,19.38,74090.8,6.35,1.75,1.89,0,*4B
1497070992.34,5551,19.38,74090.0,6.31,1.75,1.97,0,*41
1497070993.59,5552,19.38,74090.8,6.35,2.13,2.17,0,*4E
1497070994.84,5553,19.44,74088.3,6.31,2.09,2.25,0,*41
1497070996.09,5554,19.38,74090.0,6.35,2.13,2.25,0,*49
1497070997.31,5555,19.38,74084.8,6.35,1.79,2.01,0,*41
1497070998.53,5556,19.38,74086.5,6.35,1.79,1.89,0,*41
1497070999.76,5557,19.38,74086.3,6.35,2.25,2.27,0,*4D
1497071000.99,5558,19.38,74084.0,6.35,1.79,1.85,0,*43
1497071002.24,5559,19.38,74088.3,6.35,2.05,2.13,0,*46
1497071003.49,5560,19.38,74090.8,6.35,2.25,2.25,0,*4B
1497071004.71,5561,19.44,74090.5,6.35,2.35,2.39,0,*46
1497071005.97,5562,19.38,74088.3,6.39,2.51,2.43,0,*46
1497071007.22,5563,19.38,74084.5,6.39,2.17,2.17,0,*44
1497071008.45,5564,19.44,74090.3,6.37,2.13,2.17,0,*49
1497071009.67,5565,19.38,74088.0,6.37,2.25,2.25,0,*4C
1497071010.89,5566,19.44,74090.5,6.39,1.83,1.93,0,*40
1497071012.14,5567,19.38,74086.0,6.39,1.55,1.47,0,*43
1497071013.36,5568,19.38,74086.5,6.39,1.71,1.79,0,*47
1497071014.59,5569,19.38,74086.5,6.39,1.67,1.83,0,*44
1497071015.81,5570,19.38,74084.8,6.39,1.67,1.79,0,*49
1497071017.05,5571,19.38,74088.3,6.39,1.67,1.71,0,*40
1497071018.3,5572,19.38,74086.3,6.39,1.55,1.55,0,*44
1497071019.53,5573,19.38,74086.0,6.41,1.29,1.29,0,*4A
1497071020.76,5574,19.38,74084.8,6.41,1.13,1.13,0,*4D
1497071021.99,5575,19.38,74084.3,6.41,1.13,1.17,0,*48
1497071023.24,5576,19.38,74082.5,6.39,1.55,1.59,0,*4C
1497071024.44,5577,19.38,74084.5,6.41,1.75,1.85,0,*41
1497071025.66,5578,19.38,74086.8,6.41,1.63,1.59,0,*48
1497071026.89,5579,19.44,74088.3,6.41,1.29,1.47,0,*48
1497071028.13,5580,19.44,74086.8,6.43,1.47,1.51,0,*43
1497071029.36,5581,19.44,74090.5,6.41,1.29,1.37,0,*48
1497071030.6,5582,19.38,74084.0,6.43,1.59,1.71,0,*4C
1497071031.82,5583,19.38,74086.8,6.41,1.63,1.63,0,*45
1497071033.04,5584,19.38,74086.8,6.43,1.71,1.83,0,*4D
1497071034.26,5585,19.38,74084.3,6.41,1.63,1.71,0,*40
1497071035.48,5586,19.38,74080.8,6.43,1.83,1.93,0,*43
1497071036.7,5587,19.38,74084.0,6.41,1.63,1.71,0,*42
1497071037.94,5588,19.38,74086.5,6.43,1.63,1.63,0,*4C
1497071039.16,5589,19.38,74082.0,6.41,1.47,1.47,0,*4F
1497071040.4,5590,19.38,74084.8,6.43,1.47,1.47,0,*45
1497071041.59,5591,19.38,74084.3,6.45,1.41,1.43,0,*40
1497071042.79,5592,19.44,74086.5,6.43,1.75,1.83,0,*4E
1497071044.03,5593,19.38,74086.3,6.43,1.71,1.71,0,*46
1497071045.23,5594,19.38,74086.3,6.43,1.83,1.83,0,*41
1497071046.47,5595,19.38,74084.0,6.43,1.71,1.71,0,*40
1497071047.68,5596,19.38,74086.8,6.45,1.89,1.89,0,*45
1497071048.89,5597,19.38,74086.5,6.45,1.89,1.89,0,*44
1497071050.1,5598,19.44,74088.5,6.45,1.89,1.85,0,*47
1497071051.34,5599,19.38,74086.5,6.47,1.89,1.89,0,*48
1497071052.55,5600,19.44,74088.0,6.45,1.89,1.89,0,*49
1497071053.76,5601,19.38,74086.3,6.45,1.67,1.63,0,*4C
1497071054.93,5602,19.38,74086.5,6.45,1.75,1.75,0,*4B
1497071056.15,5603,19.38,74084.3,6.45,1.63,1.67,0,*4E
1497071057.37,5604,19.38,74086.5,6.45,1.63,1.63,0,*4D
1497071058.58,5605,19.44,74086.3,6.45,1.67,1.67,0,*4C
1497071059.8,5606,19.38,74086.5,6.45,1.51,1.55,0,*4B
1497071061.05,5607,19.38,74084.8,6.43,1.29,1.37,0,*47
1497071062.25,5608,19.38,74084.8,6.45,1.41,1.51,0,*40
1497071063.47,5609,19.38,74084.3,6.45,1.55,1.67,0,*41
1497071064.69,5610,19.38,74084.0,6.45,1.55,1.55,0,*48
1497071065.92,5611,19.38,74086.5,6.45,1.17,1.21,0,*4C
1497071067.14,5612,19.38,74084.0,6.45,1.17,1.33,0,*4C
1497071068.37,5613,19.38,74084.0,6.45,1.17,1.29,0,*46
1497071069.62,5614,19.38,74082.8,6.47,1.13,1.29,0,*47
1497071070.81,5615,19.38,74084.3,6.45,1.01,1.29,0,*47
1497071072.01,5616,19.38,74084.0,6.45,1.13,1.41,0,*49
1497071073.21,5617,19.38,74086.5,6.45,1.01,1.33,0,*4E
1497071074.4,5618,19.38,74086.5,6.45,0.79,1.05,0,*7A
1497071075.62,5619,19.38,74084.5,6.45,0.91,1.29,0,*73
1497071076.86,5620,19.38,74086.3,6.43,0.87,1.37,0,*77
1497071078.11,5621,19.38,74084.5,6.43,0.79,1.29,0,*78
1497071079.35,5622,19.38,74086.0,6.43,0.87,1.37,0,*75
1497071080.6,5623,19.38,74086.3,6.43,0.87,1.37,0,*74
1497071081.85,5624,19.38,74088.3,6.43,0.79,1.37,0,*72
1497071083.04,5625,19.38,74084.5,6.45,1.01,1.63,0,*4A
1497071084.25,5626,19.38,74086.8,6.45,0.59,1.29,0,*7B
1497071085.43,5627,19.38,74084.8,6.45,0.79,1.41,0,*76
1497071086.64,5628,19.38,74086.0,6.45,0.79,1.43,0,*7B
1497071087.86,5629,19.38,74086.3,6.45,0.55,1.17,0,*75
1497071089.07,5630,19.38,74088.0,6.45,0.55,1.33,0,*7B
1497071090.28,5631,19.38,74086.3,6.47,0.43,1.29,0,*74
1497071091.46,5632,19.38,74084.8,6.45,0.55,1.41,0,*7C
1497071092.64,5633,19.38,74086.0,6.45,0.43,1.29,0,*74
1497071093.79,5634,19.38,74086.0,6.45,0.43,1.41,0,*7D
1497071094.94,5635,19.38,74084.8,6.45,0.43,1.41,0,*7C
1497071096.17,5636,19.38,74086.8,6.47,0.47,1.51,0,*78
1497071097.41,5637,19.38,74086.0,6.47,0.47,1.43,0,*7A
1497071098.58,5638,19.38,74088.3,6.45,0.41,1.41,0,*73
1497071099.81,5639,19.44,74088.5,6.47,0.41,1.43,0,*72
1497071101.02,5640,19.38,74084.5,6.49,0.51,1.47,0,*77
1497071102.2,5641,19.38,74088.5,6.49,0.43,1.43,0,*71
1497071103.41,5642,19.38,74086.8,6.49,0.47,1.47,0,*72
1497071104.62,5643,19.38,74090.0,6.49,0.47,1.47,0,*73
1497071105.86,5644,19.38,74088.0,6.51,0.47,1.51,0,*7A
1497071107.1,5645,19.38,74084.5,6.51,0.29,1.37,0,*73
1497071108.34,5646,19.38,74086.8,6.51,0.41,1.59,0,*76
1497071109.58,5647,19.38,74086.8,6.51,0.47,1.59,0,*71
1497071110.81,5648,19.44,74090.3,6.53,0.37,1.51,0,*73
1497071112.05,5649,19.38,74088.5,6.57,0.55,1.63,0,*73
1497071113.26,5650,19.38,74088.5,6.53,0.25,1.41,0,*78
1497071114.46,5651,19.38,74086.3,6.57,0.29,1.41,0,*71
1497071115.7,5652,19.38,74088.8,6.53,0.29,1.29,0,*78
1497071116.94,5653,19.38,74086.8,6.57,0.21,1.25,0,*79
1497071118.18,5654,19.38,74090.0,6.53,0.37,1.37,0,*7E
1497071119.38,5655,19.38,74088.8,6.53,0.41,1.41,0,*7F
1497071120.57,5656,19.38,74088.5,6.59,0.43,1.37,0,*75
1497071121.81,5657,19.38,74084.5,6.57,0.51,1.51,0,*79
1497071122.99,5658,19.38,74086.5,6.59,0.43,1.47,0,*7C
1497071124.21,5659,19.38,74088.5,6.59,0.55,1.55,0,*79
1497071125.45,5660,19.44,74088.5,6.61,0.63,1.59,0,*71
1497071126.68,5661,19.38,74084.5,6.61,0.63,1.59,0,*70
1497071127.89,5662,19.38,74090.5,6.59,0.63,1.55,0,*74
1497071129.13,5663,19.38,74088.3,6.61,0.71,1.67,0,*7C
1497071130.37,5664,19.38,74090.0,6.61,0.71,1.55,0,*7A
1497071131.59,5665,19.38,74088.3,6.63,0.79,1.51,0,*75
1497071132.8,5666,19.38,74088.8,6.63,0.67,1.37,0,*79
1497071134.03,5667,19.38,74088.8,6.65,0.67,1.33,0,*7A
1497071135.2,5668,19.38,74090.3,6.63,0.97,1.41,0,*79
1497071136.41,5669,19.38,74084.5,6.65,0.91,1.41,0,*78
1497071137.62,5670,19.38,74086.3,6.65,0.87,1.41,0,*77
1497071138.84,5671,19.38,74086.0,6.63,1.25,1.71,0,*4A
1497071140.04,5672,19.38,74088.3,6.63,1.41,1.85,0,*40
1497071141.24,5673,19.38,74086.5,6.65,1.41,1.83,0,*41
1497071142.46,5674,19.38,74086.8,6.65,1.51,1.83,0,*47
1497071143.71,5675,19.38,74086.0,6.65,1.47,1.85,0,*47
1497071144.94,5676,19.38,74088.5,6.65,1.33,1.75,0,*48
1497071146.19,5677,19.38,74084.5,6.65,1.13,1.71,0,*4F
1497071147.43,5678,19.38,74086.3,6.65,0.87,1.47,0,*79
1497071148.66,5679,19.44,74090.0,6.65,0.67,1.37,0,*71
1497071149.9,5680,19.38,74088.5,6.65,0.87,1.59,0,*71
1497071151.14,5681,19.38,74086.5,6.65,0.87,1.51,0,*78
1497071152.32,5682,19.38,74088.3,6.63,0.75,1.41,0,*71
1497071153.57,5683,19.38,74090.3,6.65,0.91,1.51,0,*7D
1497071154.79,5684,19.44,74088.3,6.65,1.25,1.83,0,*4B
1497071156.02,5685,19.38,74084.3,6.65,1.25,1.75,0,*43
1497071157.27,5686,19.38,74086.3,6.65,1.63,2.05,0,*46
1497071158.51,5687,19.38,74086.0,6.65,1.59,1.97,0,*46
1497071159.7,5688,19.38,74084.3,6.65,1.41,1.83,0,*45
1497071160.95,5689,19.44,74088.5,6.65,1.33,1.59,0,*46
1497071162.19,5690,19.38,74088.5,6.65,1.51,1.71,0,*40
1497071163.41,5691,19.38,74088.0,6.65,1.75,1.93,0,*4B
1497071164.63,5692,19.38,74086.5,6.65,1.83,2.05,0,*4D
1497071165.86,5693,19.38,74088.8,6.63,1.63,1.85,0,*4F
1497071167.08,5694,19.38,74086.5,6.67,1.43,1.55,0,*43
1497071168.29,5695,19.38,74084.3,6.65,1.41,1.59,0,*4E
1497071169.54,5696,19.38,74084.5,6.65,1.37,1.59,0,*4C
1497071170.79,5697,19.38,74090.0,6.65,1.33,1.47,0,*46
1497071172.04,5698,19.38,74086.3,6.65,1.25,1.47,0,*4E
1497071173.29,5699,19.38,74086.5,6.65,1.13,1.21,0,*4A
1497071174.54,5700,19.38,74086.8,6.65,1.25,1.37,0,*49
1497071175.77,5701,19.38,74088.5,6.63,1.25,1.47,0,*49
1497071177.01,5702,19.38,74084.5,6.65,1.59,1.63,0,*41
1497071178.23,5703,19.38,74088.5,6.65,1.71,1.75,0,*4D
1497071179.45,5704,19.38,74086.3,6.63,1.63,1.63,0,*48
1497071180.66,5705,19.38,74090.0,6.65,1.47,1.41,0,*49
1497071181.87,5706,19.38,74088.3,6.65,1.47,1.41,0,*4A
1497071183.11,5707,19.38,74090.0,6.63,1.33,1.21,0,*48
1497071184.34,5708,19.38,74090.8,6.63,1.37,1.25,0,*47
1497071185.53,5709,19.38,74090.3,6.63,1.41,1.47,0,*43
1497071186.77,5710,19.38,74088.5,6.65,1.51,1.71,0,*49
1497071187.99,5711,19.38,74088.3,6.63,1.59,1.71,0,*46
1497071189.24,5712,19.38,74088.8,6.65,1.37,1.47,0,*4E
1497071190.49,5713,19.38,74084.3,6.65,1.13,1.33,0,*4A
1497071191.74,5714,19.38,74088.5,6.65,0.91,1.21,0,*75
1497071192.98,5715,19.38,74090.0,6.65,0.87,1.13,0,*72
1497071194.17,5716,19.38,74090.0,6.63,0.67,1.01,0,*7A
1497071195.35,5717,19.38,74086.0,6.63,0.63,1.01,0,*7F
1497071196.56,5718,19.38,74086.3,6.63,0.47,0.79,0,*48
1497071197.8,5719,19.38,74086.5,6.65,0.51,0.87,0,*49
1497071199.04,5720,19.38,74084.3,6.65,0.47,0.59,0,*47
1497071200.27,5721,19.38,74086.8,6.65,0.25,0.47,0,*4D
1497071201.48,5722,19.38,74086.3,6.63,0.13,0.37,0,*4A
1497071202.67,5723,19.38,74086.8,6.63,-0.07,0.25,0,*50
1497071203.86,5724,19.38,74084.8,6.63,-0.11,0.13,0,*65
1497071205.04,5725,19.38,74086.8,6.63,-0.33,-0.11,0,*4B
1497071206.24,5726,19.38,74088.5,6.63,-0.27,-0.19,0,*45
1497071207.47,5727,19.38,74086.8,6.65,-0.37,-0.27,0,*4E
1497071208.66,5728,19.38,74086.0,6.65,-0.61,-0.45,0,*46
1497071209.86,5729,19.38,74086.8,6.65,-0.73,-0.61,0,*42
1497071211.04,5730,19.38,74088.0,6.67,-0.81,-0.65,0,*41
1497071212.24,5731,19.38,74090.8,6.67,-0.89,-0.77,0,*4B
1497071213.5,5732,19.38,74084.3,6.65,-1.01,-0.97,0,*75
1497071214.72,5733,19.38,74086.8,6.65,-1.35,-1.25,0,*4B
1497071215.91,5734,19.38,74084.0,6.67,-1.67,-1.55,0,*4E
1497071217.15,5735,19.38,74086.0,6.67,-1.91,-1.83,0,*4D
1497071218.39,5736,19.38,74088.5,6.67,-2.07,-1.91,0,*41
1497071219.63,5737,19.38,74086.8,6.67,-2.03,-1.83,0,*47
1497071220.84,5738,19.38,74088.8,6.67,-1.95,-1.79,0,*41
1497071222.05,5739,19.38,74086.8,6.67,-2.39,-2.07,0,*4F
1497071223.26,5740,19.38,74086.0,6.67,-2.59,-2.39,0,*4A
1497071224.5,5741,19.38,74086.0,6.67,-2.67,-2.51,0,*48
1497071225.74,5742,19.38,74086.3,6.65,-2.83,-2.55,0,*47
1497071226.97,5743,19.38,74084.5,6.65,-2.83,-2.47,0,*45
1497071228.17,5744,19.38,74084.8,6.65,-2.83,-2.43,0,*46
1497071229.41,5745,19.38,74086.5,6.65,-3.47,-3.11,0,*48
1497071230.64,5746,19.38,74086.3,6.65,-3.51,-3.11,0,*4C
1497071231.86,5747,19.38,74086.5,6.65,-3.75,-3.35,0,*4D
1497071233.09,5748,19.38,74086.8,6.65,-3.71,-3.19,0,*48
1497071234.3,5749,19.38,74088.3,6.63,-3.63,-3.11,0,*44
1497071235.51,5750,19.38,74086.0,6.65,-3.95,-3.39,0,*49
1497071236.7,5751,19.38,74086.5,6.63,-3.95,-3.39,0,*4E
1497071237.89,5752,19.38,74084.8,6.63,-3.95,-3.35,0,*41
1497071239.1,5753,19.38,74086.5,6.61,-4.05,-3.27,0,*4F
1497071240.31,5754,19.38,74086.0,6.59,-4.29,-3.43,0,*4F
1497071241.53,5755,19.38,74084.3,6.61,-4.45,-3.55,0,*48
1497071242.75,5756,19.38,74090.0,6.61,-4.45,-3.43,0,*4C
1497071243.96,5757,19.38,74086.3,6.59,-4.45,-3.43,0,*46
1497071245.18,5758,19.38,74086.3,6.61,-4.53,-3.51,0,*46
1497071246.41,5759,19.38,74086.0,6.61,-4.65,-3.55,0,*46
1497071247.61,5760,19.38,74086.5,6.59,-4.93,-3.87,0,*41
1497071248.84,5761,19.38,74084.5,6.61,-5.11,-4.05,0,*4D
1497071250.08,5762,19.38,74086.8,6.61,-5.61,-4.53,0,*4A
1497071251.28,5763,19.38,74086.8,6.59,-5.55,-4.53,0,*47
1497071252.5,5764,19.38,74086.8,6.59,-5.23,-4.25,0,*40
1497071253.71,5765,19.38,74086.0,6.59,-5.19,-4.13,0,*4D
1497071254.89,5766,19.38,74086.0,6.59,-5.43,-4.17,0,*45
1497071256.09,5767,19.38,74088.3,6.59,-5.73,-4.45,0,*40
1497071257.31,5768,19.38,74084.8,6.59,-5.73,-4.53,0,*48
1497071258.5,5769,19.38,74088.0,6.59,-6.01,-4.65,0,*4A
1497071259.73,5770,19.38,74086.8,6.59,-6.27,-4.77,0,*45
1497071260.95,5771,19.38,74086.3,6.59,-6.35,-4.81,0,*4E
1497071262.19,5772,19.38,74086.0,6.59,-6.27,-4.93,0,*4D
1497071263.38,5773,19.38,74084.8,6.59,-5.97,-4.65,0,*4D
1497071264.65,5774,19.38,74086.8,6.57,-5.93,-4.81,0,*4A
1497071265.9,5775,19.38,74086.8,6.57,-5.85,-4.57,0,*47
1497071267.13,5776,19.38,74084.3,6.53,-6.43,-4.85,0,*46
1497071268.37,5777,19.38,74086.5,6.57,-6.27,-4.61,0,*4B
1497071269.63,5778,19.38,74086.0,6.57,-6.63,-4.81,0,*4A
1497071270.87,5779,19.38,74084.0,6.53,-7.15,-5.19,0,*4F
1497071272.08,5780,19.38,74084.8,6.51,-7.49,-5.51,0,*4E
1497071273.32,5781,19.38,74086.0,6.51,-7.23,-5.15,0,*43
1497071274.53,5782,19.38,74086.0,6.53,-6.89,-4.99,0,*46
1497071275.76,5783,19.38,74084.3,6.53,-7.49,-5.27,0,*4E
1497071277.03,5784,19.38,74084.3,6.53,-7.35,-5.11,0,*47
1497071278.28,5785,19.38,74084.8,6.53,-7.39,-5.19,0,*42
1497071279.52,5786,19.38,74086.0,6.51,-6.73,-4.85,0,*48
1497071280.76,5787,19.38,74084.5,6.51,-6.59,-4.73,0,*48
1497071281.98,5788,19.38,74086.0,6.51,-6.81,-4.65,0,*45
1497071283.19,5789,19.38,74088.5,6.51,-6.59,-4.61,0,*45
1497071284.4,5790,19.38,74088.3,6.49,-6.85,-4.77,0,*42
1497071285.62,5791,19.38,74086.0,6.49,-6.77,-4.69,0,*41
1497071286.85,5792,19.38,74086.3,6.53,-6.81,-4.73,0,*4B
1497071288.04,5793,19.38,74088.5,6.49,-6.77,-4.65,0,*4F
1497071289.25,5794,19.38,74084.5,6.53,-6.85,-4.61,0,*4A
1497071290.47,5795,19.38,74084.8,6.57,-6.55,-4.49,0,*48
1497071291.68,5796,19.38,74084.5,6.51,-6.43,-4.33,0,*47
1497071292.89,5797,19.38,74090.3,6.51,-6.09,-4.09,0,*41
1497071294.1,5798,19.38,74086.3,6.51,-5.97,-3.87,0,*4B
1497071295.31,5799,19.44,74090.8,6.51,-5.97,-3.87,0,*4A
1497071296.53,5800,19.38,74086.5,6.51,-6.09,-4.13,0,*4B
1497071297.76,5801,19.38,74084.5,6.53,-6.23,-4.21,0,*41
1497071299.0,5802,19.38,74090.0,6.53,-6.19,-4.25,0,*4F
1497071300.26,5803,19.38,74084.0,6.53,-5.81,-4.01,0,*4A
1497071301.5,5804,19.38,74088.3,6.53,-5.81,-4.13,0,*4E
1497071302.74,5805,19.38,74088.0,6.53,-5.81,-4.13,0,*4F
1497071303.97,5806,19.38,74088.5,6.53,-5.65,-3.95,0,*4F
1497071305.23,5807,19.38,74088.8,6.53,-5.77,-4.01,0,*47
1497071306.49,5808,19.38,74088.8,6.57,-5.27,-3.59,0,*43
1497071307.74,5809,19.38,74088.8,6.53,-5.31,-3.63,0,*48
1497071308.97,5810,19.38,74088.8,6.57,-4.93,-3.39,0,*42
1497071310.22,5811,19.38,74090.5,6.53,-5.03,-3.51,0,*41
1497071311.46,5812,19.38,74090.0,6.57,-4.73,-3.27,0,*41
1497071312.66,5813,19.38,74090.5,6.57,-4.61,-3.19,0,*4E
1497071313.91,5814,19.38,74088.3,6.57,-4.73,-3.43,0,*45
1497071315.16,5815,19.38,74090.3,6.57,-4.85,-3.47,0,*49
1497071316.36,5816,19.38,74090.5,6.57,-4.49,-3.39,0,*43
1497071317.58,5817,19.38,74088.0,6.57,-4.21,-3.15,0,*42
1497071318.79,5818,19.38,74088.8,6.57,-4.09,-3.15,0,*47
1497071320.02,5819,19.38,74088.8,6.57,-3.71,-2.79,0,*45
1497071321.23,5820,19.38,74088.8,6.57,-3.27,-2.43,0,*45
1497071322.44,5821,19.38,74084.5,6.57,-3.03,-2.27,0,*40
1497071323.71,5822,19.38,74092.0,6.57,-2.71,-2.07,0,*45
1497071324.97,5823,19.38,74088.3,6.57,-2.55,-2.03,0,*46
1497071326.17,5824,19.38,74088.3,6.57,-2.91,-2.27,0,*4F
1497071327.42,5825,19.38,74090.8,6.57,-3.27,-2.55,0,*47
1497071328.66,5826,19.38,74088.5,6.61,-3.11,-2.47,0,*47
1497071329.84,5827,19.38,74088.3,6.59,-2.79,-2.27,0,*44
1497071331.05,5828,19.38,74088.3,6.59,-2.67,-2.27,0,*44
1497071332.28,5829,19.38,74090.5,6.61,-2.59,-2.15,0,*42
1497071333.52,5830,19.38,74088.5,6.61,-2.79,-2.59,0,*40